Location: Stull Observatory
(42.2506°N, 77.7903°W)
Time: 12:18:07
(UTC-05:00)

Daily predictions for brighter satellites

Satellite Brightness Start Highest point End
(mag) Time Altitude Azimuth Time Altitude Azimuth Time Altitude Azimuth
Meteor 1-25 Rocket 4.2 18:13:27 10° S 18:19:02 76° E 18:24:45 10° NNE
Okean 1 3.6 18:15:23 10° N 18:19:21 47° E 18:23:16 10° SSE
Cosmos 1812 2.7 18:16:17 10° N 18:20:11 78° E 18:24:01 10° S
Cosmos 1633 3.7 18:18:13 10° SE 18:21:13 24° E 18:24:14 10° NE
Cosmos 1536 Rocket 3.9 18:17:45 10° N 18:22:02 44° ENE 18:26:19 10° SSE
Cosmos 1818 3.6 18:19:48 10° SSW 18:25:13 70° ESE 18:30:39 10° NE
Cosmos 407 Rocket 3.5 18:21:31 10° SSW 18:26:45 79° ESE 18:32:05 10° NNE
Cosmos 2360 Rocket 2.5 18:21:52 10° NNW 18:27:17 44° ENE 18:32:41 10° SE
Cosmos 2219 Rocket 3.9 18:25:22 10° NNE 18:28:23 14° NE 18:31:24 10° ENE
Cosmos 2219 4.5 18:25:36 10° SE 18:29:35 20° E 18:33:35 10° NE
Cosmos 676 Rocket 4.0 18:26:14 10° S 18:31:19 60° ESE 18:36:28 10° NNE
DNEPR-1 R/B 4.0 18:27:10 10° NW 18:31:22 65° WSW 18:35:36 10° SSE
Nadezhda 1 Rocket 4.3 18:32:00 10° NNW 18:38:03 73° W 18:44:06 10° S
Meteor 1-11 Rocket 4.2 18:33:41 10° SSE 18:39:02 41° E 18:44:32 10° NNE
Cosmos 1461 3.9 18:40:11 10° NW 18:44:04 48° WSW 18:48:02 10° SSE
DELTA 2 R/B (1) 4.1 18:39:43 10° W 18:45:11 54° SSW 18:50:39 10° ESE
Cosmos 1140 Rocket 3.6 18:41:30 10° S 18:46:25 49° ESE 18:51:23 10° NNE
Cosmos 1602 3.8 18:45:47 10° S 18:49:32 52° E 18:53:21 10° NNE
Resurs 01 Rocket 2.2 18:45:49 10° SE 18:49:48 35° ENE 18:53:49 10° N
Cosmos 1300 Rocket 3.7 18:46:47 10° S 18:51:04 52° E 18:55:23 10° NNE
Cosmos 2292 Rocket 4.4 18:48:53 10° S 18:54:03 89° E 19:01:07 10° N
Cosmos 614 Rocket 4.2 18:49:31 10° S 18:54:18 43° ESE 18:59:06 10° NNE
COSMO-SKYMED 1 3.9 18:51:07 10° N 18:55:14 42° WNW 18:59:19 10° SW
Abrixas rocket 4.0 18:53:47 10° S 18:56:07 18° SE 18:56:52 16° ESE
Cosmos 1833 4.1 18:50:38 10° SSW 18:56:19 77° ESE 19:01:59 10° NNE
ALOS 2.3 18:53:10 10° SSE 18:57:44 56° ENE 19:02:20 10° N
Cosmos 2181 Rocket 4.0 18:51:50 10° N 18:58:05 71° E 19:04:24 10° SSE
USA 229 DEB 4.3 18:55:18 10° NNW 19:01:59 41° NE 19:07:02 17° ESE
USA 229 4.3 18:55:24 10° NNW 19:02:04 41° NE 19:07:06 18° ESE
Spot 2 Rocket 3.7 18:57:19 10° SE 19:02:09 48° ENE 19:07:02 10° N
Cosmos 2333 Rocket 3.5 18:57:58 10° N 19:02:16 21° NE 19:04:11 18° ENE
SL-16 R/B 3.8 18:58:43 10° NW 19:03:55 38° WSW 19:09:05 10° S
Cosmos 2208 Rocket 4.4 18:59:14 10° N 19:04:28 45° ENE 19:09:38 10° SE
FREGAT/IRIS 3.0 19:02:20 10° S 19:05:24 67° W 19:08:30 10° NNW
Helios 1A 3.9 19:04:16 21° ESE 19:05:54 27° ENE 19:09:24 10° N
Cosmos 1340 2.9 19:02:45 10° NNW 19:06:33 73° W 19:10:18 10° S
Resurs 1-3 3.9 19:03:28 10° SE 19:07:39 44° ENE 19:11:50 10° N
Cosmos 1709 Rocket 4.2 19:07:16 10° SSW 19:13:28 75° W 19:19:39 10° N
Cosmos 1850 Rocket 4.1 19:08:23 10° S 19:13:32 55° ESE 19:18:45 10° NNE
Cosmos 2074 Rocket 4.2 19:07:38 10° SSE 19:13:35 48° E 19:19:34 10° NNE
Cosmos 2184 Rocket 4.2 19:10:31 10° SSE 19:16:32 49° E 19:22:31 10° NNE
Helios 1B rocket 3.2 19:14:19 10° NE 19:18:13 30° ESE 19:21:39 10° SSE
Envisat 4.1 19:18:30 23° ENE 19:18:41 23° ENE 19:22:39 10° NNE
FengYun 1-2 T 4.1 19:14:21 10° SSE 19:19:49 87° ENE 19:25:21 10° NNW
Cosmos 2322 Rocket 4.4 19:15:34 10° NW 19:20:11 27° WSW 19:24:48 10° SSW
NOSS 8 (H) 4.4 19:17:21 10° SSW 19:20:40 58° ESE 19:21:51 35° ENE
Okean 2 4.1 19:18:11 10° N 19:21:58 32° ENE 19:22:00 32° ENE
USA 186 4.2 19:24:36 11° NNE 19:24:36 11° NNE 19:24:44 10° NNE
HJ-1C 3.6 19:19:11 10° S 19:22:32 73° WSW 19:25:56 10° NNW
SJ-6B 3.9 19:20:04 10° S 19:23:56 46° W 19:27:45 10° NNW
Tiangong 2 3.8 19:22:49 10° WSW 19:24:36 14° SSW 19:26:23 10° S
Okean 1 Rocket 3.1 19:21:22 10° S 19:25:51 85° W 19:30:21 10° N
SAR-Lupe-1 4.4 19:26:19 42° ENE 19:26:19 42° ENE 19:29:41 10° N
Genesis I 3.1 19:22:40 10° NNW 19:26:37 72° NE 19:28:05 36° SE
Meteor 1-5 Rocket 4.4 19:20:54 10° S 19:26:41 54° E 19:32:25 10° NNE
FENGYUN 3A 3.8 19:22:15 10° S 19:27:40 80° WSW 19:33:07 10° NNW
Cosmos 1892 Rocket 4.5 19:26:14 10° NNE 19:29:15 29° NE 19:29:15 29° NE
SAR-Lupe-4 3.5 19:30:26 48° ESE 19:31:06 58° ENE 19:34:38 10° N
Nadezhda 3 Rocket 4.5 19:29:55 10° N 19:35:32 36° ENE 19:36:37 33° E
Gbstr 26 Del rocket 2.6 19:32:10 10° WSW 19:35:58 81° NW 19:36:52 50° NE
Cosmos 2322 4.2 19:31:10 10° NNW 19:36:47 60° WSW 19:42:23 10° S
Cosmos 1238 Rocket 4.2 19:34:56 10° NNW 19:37:33 28° W 19:40:09 10° SSW
Cosmos 2285 Rocket 4.0 19:37:50 10° NNW 19:44:15 66° ENE 19:47:50 27° SE
GEOS 3 Rocket 3.7 19:39:42 13° NE 19:44:29 81° NW 19:49:46 10° SW
CZ-2D R/B 3.1 19:43:32 33° S 19:45:09 86° WSW 19:48:59 10° NNW
Cosmos 1025 Rocket 2.9 19:40:52 10° N 19:45:16 90° WSW 19:48:41 17° S
Cosmos 2154 Rocket 4.3 19:39:36 10° SSE 19:45:32 43° E 19:51:28 10° NNE
Cosmos 405 Rocket 3.9 19:42:34 10° N 19:45:01 31° NNE 19:45:01 31° NNE
GPS 2-04 Rocket1 4.2 19:42:59 10° SW 19:46:29 27° S 19:46:29 27° S
H-2A R/B 3.4 19:46:50 10° S 19:50:27 53° W 19:54:09 10° NNW
Meteor 2-13 Rocket 4.3 19:45:27 10° S 19:51:23 61° E 19:57:22 10° NNE
Okean 1-7 Rocket 4.2 19:46:59 10° NNW 19:51:27 58° W 19:55:50 10° S
Cosmos 1536 3.7 19:47:40 10° SSW 19:51:32 49° W 19:55:26 10° N
Meteor 1-23 Rocket 4.4 19:46:20 10° NNW 19:52:10 78° W 19:57:53 10° S
COSMOS 2428 2.7 19:46:30 10° NNW 19:52:13 84° WSW 19:55:38 25° SSE
Cosmos 2333 4.1 19:47:50 10° NNW 19:53:37 87° ENE 19:56:21 33° SSE
Meteor 2-4 Rocket 4.2 19:49:01 10° NNW 19:54:28 59° W 19:59:45 10° S
Cosmos 2237 Rocket 2.9 19:51:02 10° N 19:55:53 37° NE 19:55:53 37° NE
NOSS 0 Rocket 3.8 20:01:47 10° NNW 20:07:55 63° ENE 20:08:25 61° E
Cosmos 2360 Rocket 4.2 20:06:21 10° NW 20:11:01 27° WSW 20:15:40 10° SSW
Cosmos 2219 3.7 20:07:30 10° SW 20:13:11 61° WNW 20:18:54 10° NNE
Cosmos 2219 Rocket 2.0 20:07:38 10° NNW 20:13:16 81° ENE 20:13:36 77° ESE
Resurs 01 Rocket 4.0 20:22:56 10° SW 20:26:21 22° W 20:29:48 10° NW
SL-16 R/B 3.8 20:24:44 10° N 20:27:19 23° NNE 20:27:19 23° NNE
BREEZE-M DEB (TANK) 4.2 20:29:58 10° WNW 20:33:56 69° SSW 20:35:01 60° SSE
Cosmos 2333 Rocket 2.6 20:41:21 10° NNW 20:46:14 60° WNW 20:46:14 60° WNW
USA 229 DEB 4.4 20:46:16 10° NW 20:53:07 50° WSW 20:54:32 45° SSW
USA 229 4.4 20:46:21 10° NW 20:53:13 51° WSW 20:54:36 45° SSW
Envisat 4.3 20:58:41 37° WNW 20:58:41 37° WNW 21:02:16 10° NNW
NOSS 3-1 (A) 4.1 20:58:30 10° NNW 21:04:58 66° N 21:04:58 66° N
ATLAS 2AS CENTAUR R/B 4.1 21:04:34 10° NNW 21:10:18 31° NNE 21:10:18 31° NNE
NOSS 3-1 (C) 4.4 21:18:03 10° NW 21:24:23 61° WNW 21:24:23 61° WNW
Cosmos 2237 Rocket 4.3 21:35:14 10° NW 21:37:44 23° WNW 21:37:44 23° WNW
